Torna al catalogo

COSMOS 1395

AttivoNavigazioneLEO
NORAD 13382·PAYLOAD·🇷🇺 Russia

Lanciato Jul 21, 1982 da Plesetsk Cosmodrome

Loading…

Prossimi Passaggi (prossime 24 ore)

TLE

AggiornatoSource: Space-Track

Epoca: Sep 14, 2026, 22:25 UTC

1 13382U 82073H   26257.93450774 -.00000003  00000-0  87860-4 0  9995
2 13382  74.0133 123.4437 0026404 127.2018 252.3318 12.42867444  3265

Traccia COSMOS 1395 in tempo reale con AllMySat

Download on the App Store